CZ-6A DEB, 54499

Orbit data source: Space-Track

CZ-6A DEB, 54499 is space debris in SSO originally from a launch on Fri, 11 Nov 2022 UTC launched from the Taiyaun Space Center, China (TSC). Debris objects in space refer to the collection of defunct objects orbiting the Earth. Examples of debris include non-operational satellites, rocket bodies, and fragments generated from explosions, collisions, or faulty payload assembly.

Loading next visibility...
Identifier
54499, 2022-151JB
Orbit
SSO
Country
Flag of CNCN / PRC
Related business
Manufacturer
SAST
Mission
Spacecraft
Bus & Motor
Unknown
Mass
Unknown
Launch date (UTC)
2022-11-11 (4 years ago)
Launch vehicle
Unknown
Launch site
Taiyaun Space Center, China (TSC)
Object type
Payload
Rocket body
Debris
Shape & HBR
Unknown shape, 1.1 m
Radar Cross Section
Large (>1 m²)

Expand to show TLE details & history
Last TLE update: 2 days ago

TLE from 2 days ago
0 CZ-6A DEB
1 54499U 22151JB  26171.41584522  .00000142  00000-0  48886-4 0  9995
2 54499  98.5806 224.1130 0132640 284.2915  74.3578 14.46529543189879
Epoch: 2026-06-20T09:58Z
TLE epoch observation values (Epoch: 2026-06-20T09:58:49.027Z)
Latitude
-0.00005°
Longitude
165.77794°
Altitude
715.677 km
Speed
7.51 km/s
True Right ascension
14h 56m 27s
True Declination
0° 00' 00"
Sunlit
Object was in full shadow at epoch
Visualization orbit readout
Latitude
Unknown
Longitude
Unknown
Altitude
Unknown
Speed
Unknown
Apparent Right ascension
Unknown
Apparent Declination
Unknown
Sunlit
N/A
Visualization observer readout
Local Sidereal Time
21:52:23
Azimuth
Unknown
Elevation
Unknown
Doppler factor
Unknown
Orbital elements
Apogee altitude
828.459 km
Perigee altitude
639.785 km
Semi-major axis
7,112.259 km
Eccentricity
0.01326
Inclination
98.5806°
RAAN
224.113°
Arg. of periapsis
284.2915°
True anomaly
75.82786°
Mean anomaly
74.3578°
Eccentric anomaly
75.09219°
Mean motion
3.61853 °/min
Orbital period
99.49 mins
BSTAR
0.000048886
Loading maneuver chart data...
Computing Atmospheric mass density...
Loading historical data...
Loading historical data...
Loading historical data...
Loading historical data...
Loading historical data...
Loading historical data...
Loading historical data...

Documentation

Showing up to 5 results
|